Weather in Alexandroupolis

Greece     40˚50′42″N   25˚52′29″E
temp.,
°C
wind,
m/s
gust,
m/s
humid.,
%
clouds,
%
prec.,
mm/h
press.,
hPa
HPBL,
m
27 november, fri
fri2723:00+12˚ene89530 0.0 1024472
02:00+12˚ene89600 0.0 1023474
05:00+12˚ne78620 0.0 1023414
08:00+12˚ene68620 0.0 1023395
11:00+13˚ene56550 0.0 1023446
14:00+14˚ene44500 0.0 1021421
17:00+14˚ene44480 0.0 1021408
20:00+14˚ne44510 0.0 1021263
28 november, sat
sat2823:00+13˚ne22510 0.0 1022224
02:00+13˚ene22540 0.0 1021203
05:00+12˚e21590 0.0 1020214
08:00+13˚ese22640 0.0 1020394
11:00+14˚ssw24640 0.0 1020639
14:00+15˚sw46580 0.0 1019729
17:00+16˚sw56601 0.0 1019799
20:00+16˚sw556145 0.0 1019821
29 november, sun
sun2923:00+15˚sw5665100 0.0 1019858
02:00+16˚sw7872100 0.0 10181124
05:00+16˚ssw91174100 0.1 10171215
08:00+16˚ssw91176100 0.4 10171179
11:00+16˚ssw101175100 1.4 10171119
14:00+16˚ssw8975100 3.0 10161004
17:00+16˚s81075100 2.4 1015965
20:00+16˚se5672100 3.3 1015778
30 november, mon
mon3023:00+15˚e5668100 0.1 1015438
02:00+14˚ene6671100 0.1 1014303
05:00+13˚ene8978100 0.0 1014332
08:00+13˚ene81078100 0.2 1014390
11:00+12˚ene8983100 1.5 1015463
14:00+12˚ne91181100 2.4 1015613
17:00+11˚nne6882100 3.4 1017562
20:00+10˚nne5773100 4.0 1019683
1 december, tue
tue123:00+8˚nne6981100 3.4 1020579
02:00+7˚nne6780100 6.0 1021568
05:00+6˚nne5678100 1.3 1022537
08:00+6˚nne5680100 2.9 1023566
11:00+5˚n2380100 1.9 1024475
14:00+5˚nne2285100 3.9 1022401
17:00+6˚ne4483100 0.9 1022444
20:00+6˚ne5684100 2.0 1022466